NOAA 16 DEB

Satellite information

Favourite Embed

Satellite Type and Status

DEBRISIN ORBIT

Key statistics

Satellite NOAA 16 DEB at a glance.

Uptime

9054

Days in orbit

Revolutions

≈ 14.3

Per day

Orbit

SSO

Sun Synchronous Orbit

Inclination

98.8

Latest

Satellite identification and parameters

Extended collection of information and parameters for NOAA 16 DEB.

Object identification

Identified? True

Debris? True

Object name: NOAA 16 DEB

International designator: 2000-055LH

Object number (NORAD): 41428

Object ID (CCSDS): 41428

Country: UNITED STATES OF AMERICA (US)

Current information (Y/N): Y

RCS size: SMALL

Orbital parameters

Period: 100.438 minutes

Inclination: 98.8157 deg

SMA: 7157.443 km

Apoapsis: 791.69 km

Periapsis: 766.926 km

RAAN: 294.6655 deg

Eccentricy: 0.00173

Argument of periapsis: 101.7067 deg

Mean anomaly: 258.6059 deg

Mean motion: 14.33725187 rev/day

Mean motion (dot): 0.00004137 rev/day2

B* drag term: 0.0015032 1/REarth

Two-line elements (TLE)

Creation date: July 4, 2025, 2:56 p.m.

Reference frame: TEME

Reference center: EARTH

Epoch: July 4, 2025, 12:59 p.m. UTC

TLE line 0: 0 NOAA 16 DEB

TLE line 1: 1 41428U 00055LH 25185.54150199 .00004137 00000-0 15032-2 0 9992

TLE line 2: 2 41428 98.8157 294.6655 0017300 101.7067 258.6059 14.33725187484438

Live tracking on map

Real-time ground track for satellite NOAA 16 DEB.

In-orbit conjunctions

A list of the most updated potential collisions computed for object NOAA 16 DEB.

Target Orbit TCA Probability of collision Miss distance Type
THOR BURNER 2A DEB SSO 2025-05-23 21:13:59 0.0001039255 206.0 (m) DEBRIS
HAIYANG 1 SSO 2025-05-19 23:41:56 0.0002343412 908.0 (m) PAYLOAD
CZ-6A DEB LEO 2025-02-25 16:26:47 0.0001065033 711.0 (m) DEBRIS
CZ-6A DEB LEO 2025-02-21 01:38:24 0.0003815208 85.0 (m) DEBRIS
CZ-6A DEB LEO 2025-01-12 14:35:52 0.000102148 293.0 (m) DEBRIS

Associated space launch

The NOAA K, L and M POES satellites begin the fifth generation of improved environmental monitoring in support of NOAA missions. The instrument payload has significant improvements and additions/deletions. The instrument changes have effected the spacecraft subsystems and data formats.

NOAA 16 DEB was lifted into orbit during the mission ‘Titan II SLV | NOAA 16’, on board a Titan II SLV space rocket.

The launch took place on Sept. 21, 2000, 10:22 a.m. from Space Launch Complex 4W.

For more information about the launch, click the button.

Launch to space Titan II SLV | NOAA 16
Titan II SLV | NOAA 16

Agency: N/A

Status: Launch Successful

Launch date: Sept. 21, 2000, 10:22 a.m. UTC

Rocket: Titan II SLV

Launch pad: Space Launch Complex 4W

Location: Vandenberg SFB, CA, USA

...

Latest news about this satellite

There are no fresh news available about this satellite. Check back as we update our databases every day.


Newsletter sign-up

Weekly statistics, charts and insights to help you stay on top of the space industry.